Location: Canazei
(46.4667°N, 11.7667°E)
Time: 06:56:29
(UTC+00:00)

Cosmos 1048 Rocket - Pass Details

Date: 21 April 2021
Orbit: 742 x 792 km, 74.0° (Epoch: 15 May)

Event Time Altitude Azimuth Distance (km) Brightness Sun altitude
Rises 02:49:19 0° 338° (NNW) 3,302 7.5 -14.0°
Reaches altitude 10° 02:51:44 10° 338° (NNW) 2,367 6.7 -13.7°
Maximum altitude 02:57:08 89° 64° (ENE) 795 4.1 -12.9°
Drops below altitude 10° 03:02:28 10° 160° (SSE) 2,333 6.4 -12.2°
Sets 03:04:50 0° 160° (SSE) 3,250 7.1 -11.8°
